This is the latest recevied weather packets stored in our database for station/object IW0REF-9. If no packets are shown the sender has not sent any weather packets the latest 10 day(s).
| Time | Temp. | Humidity | Pressure | Rain* | Wind** | Luminosity | Snow |
|---|---|---|---|---|---|---|---|
| 1778072010 | 24.44° C | 30% | 997.1 hPa | - | - | - | - |
| 1778071110 | 24.44° C | 30% | 997.4 hPa | - | - | - | - |
| 1778070210 | 23.89° C | 31% | 997.3 hPa | - | - | - | - |
| 1778069310 | 23.89° C | 32% | 997.2 hPa | - | - | - | - |
| 1778068410 | 22.78° C | 33% | 997.4 hPa | - | - | - | - |
| 1778067510 | 22.78° C | 33% | 997.4 hPa | - | - | - | - |
| 1778066610 | 23.33° C | 34% | 997.4 hPa | - | - | - | - |
| 1778065710 | 23.33° C | 34% | 997.4 hPa | - | - | - | - |
| 1778064810 | 23.89° C | 36% | 997.4 hPa | - | - | - | - |
| 1778063909 | 24.44° C | 37% | 997.3 hPa | - | - | - | - |
| 1778063009 | 23.89° C | 36% | 997.4 hPa | - | - | - | - |
| 1778062109 | 24.44° C | 37% | 997.3 hPa | - | - | - | - |
| 1778061209 | 23.89° C | 39% | 997.3 hPa | - | - | - | - |
| 1778060311 | 22.78° C | 40% | 997.4 hPa | - | - | - | - |
| 1778059409 | 21.67° C | 39% | 997.3 hPa | - | - | - | - |
| 1778058509 | 21.11° C | 39% | 997.4 hPa | - | - | - | - |
| 1778057609 | 21.11° C | 38% | 997.4 hPa | - | - | - | - |
| 1778056709 | 21.67° C | 39% | 997.1 hPa | - | - | - | - |
| 1778055808 | 21.67° C | 39% | 997.1 hPa | - | - | - | - |
| 1778054909 | 21.67° C | 40% | 997.1 hPa | - | - | - | - |
| 1778054008 | 20° C | 40% | 997.1 hPa | - | - | - | - |
| 1778053108 | 18.89° C | 41% | 996.9 hPa | - | - | - | - |
| 1778052208 | 18.89° C | 39% | 997.3 hPa | - | - | - | - |
| 1778051308 | 19.44° C | 40% | 997.2 hPa | - | - | - | - |
| 1778050408 | 18.89° C | 41% | 997.3 hPa | - | - | - | - |
* Rain since midnight (hover to see other rain measurements)
** Current wind speed in m/s (hover to see current wind gust speed)